Погода в Полоцке

Погода в Полоцке : погода сейчас, прогноз погоды и архив. Всё, что Вы хотите узнать о погоде в Полоцке!

Хотите узнать прогноз погоды в Полоцке? Тогда Вам сюда: Погода в Полоцке

Поиск расширенной информации на нашем сайте:

Другие новости

Новости СМИ2

Главная страница сайта

Новости сайта

03.07.2017

Напоминаем, что на нашем специализированном сайте Метеоцентр.Азия вы можете получить высокодетализированные автоматические прогнозы погоды по пунктам России, СНГ и мира в авиационном формате (включающие направление и скорость ветра, видимость, явления погоды, количество и форму облачности, нижнюю и верхнюю границу облачности).


Погода в Полоцке - сегодня

Время (UTC), дата Ветер
(°,м/с) 
Видим.   Явления Облачность Т
(°С)
Тd
(°С)
f(%) Тe
(°С)
Pmin
(гПа)
dP
(гПа)
Po
(мм)
O2
(г/м3)
Тmin Tmax R s Состояние
почвы
21 10.08.18 170 (Ю) 10 км    ясно 
+18.9 +13 69 +25  1022.8  0.6  755  282           
00 11.08.18 180 (Ю) 10 км    ясно 
+17.4 +12.7 74 +23  1021.8  -1.1  755  283           
06 11.08.18 210 (ЮЗ) 15000 м    9/0 средняя 
[Ac trans]
+19.6 +13.3 67 +27  1021  754  281  +16.3         
09 11.08.18 330 (СЗ) 15000 м    9/4 1000 м кучево-дожд., средняя 
[Cb cap|Ac trans]
+22.1 +15.6 67 +32  1020.8  -0.1  754  278           
12 11.08.18 260 (З) 20000 м    8/3 1000 м средняя, верхняя 
[Cu hum|Ac trans|Ci fib]
+24.6 +17.6 65 +38  1019.4  -1.3  753  274           
15 11.08.18 тихо ()   20000 м    6/0 средняя, верхняя 
[Ac trans|Ci ing]
+24.4 +19.2 73 +41  1016.7  -2.6  751  273           
18 11.08.18 060 (СВ) 10 км    4/0 средняя, верхняя 
[Ac trans|Ci fib]
+21 +19.1 89 +38  1015.3  -1.6  750  276    +25       
21 11.08.18 190 (Ю) 10 км    ясно 
+20 +17.9 88 +34  1014  -1.4  749  277           
00 12.08.18 180 (Ю) 10 км    8/0 средняя 
[Ac trans]
+19 +17 88 +32  1012.8  -1.2  748  278           
03 12.08.18 230 (ЮЗ) 8000 м  слаб. дождь  10/10 300 м 
[Frnb|Ns]
+16.2 +15.5 96 +28  1012.8  -0.1  748  281         
06 12.08.18 240 (ЮЗ) 20000 м  {ливн. осадки, дождь}  9/6 600 м кучево-дожд., верхняя 
[Cb cap|Ci ing]
+15.9 +14.3 90 +24  1013.4  0.5  748  282  +15.7       
09 12.08.18 240 (ЮЗ) 20000 м    9/8 1000 м верхняя 
[Cu med, cong|Ci fib]
+19.3 +11.8 62 +24  1013.7  0.4  749  279           
12 12.08.18 220 (ЮЗ) 5-11{11}  20000 м    5/3 1000 м верхняя 
[Cu med, cong|Ci ing]
+21.7 +7.4 40 +22  1012.4  -1.1  748  278           
15 12.08.18 260 (З) 5-11{14}  15000 м    9/8 1000 м верхняя 
[Sc|Ci ing]
+20.6 +7.1 42 +21  1012.5  0.1  748  279           
18 12.08.18 240 (ЮЗ) 3{11}  10 км  {ливн. осадки}  3/3 1000 м 
[Sc diur, vesp]
+16.4 +9 62 +17  1013.2  0.4  748  283    +22.4  0.0     
21 12.08.18 240 (ЮЗ) 10 км    ясно 
+14.8 +10.3 74 +17  1012.8  -0.4  748  284           
00 13.08.18 240 (ЮЗ) 10 км    4/0 верхняя 
[Ci ing]
+13.8 +9.9 77 +15  1012.5  -0.3  748  285           
06 13.08.18 220 (ЮЗ) 9000 м  слаб. дождь  10/10 600 м 
[Ns]
+15 +11.1 77 +19  1012.7  0.4  748  284  +13.4    0.0     
09 13.08.18 220 (ЮЗ) 15000 м  в посл. час дождь  10/0 средняя 
[Ac und]
+17.3 +10.4 64 +20  1013.3  0.6  748  282      0.0     
12 13.08.18 220 (ЮЗ) 3{10}  15000 м  {дождь}  9/9 840 м 
[Sc]
+18.1 +11.8 67 +23  1012.9  -0.2  748  280      0.0     
15 13.08.18 220 (ЮЗ) 15000 м    9/0 средняя 
[Ac und]
+16.9 +12.4 75 +22  1012.7  -0.3  748  281      0.0     
18 13.08.18 210 (ЮЗ) 10 км  {дождь}  9/8 960 м кучево-дожд., средняя 
[Cb cap|Ac trans]
+15.7 +12.8 83 +21  1012.4  -0.3  748  282    +18.3  0.0     
21 13.08.18 тихо ()   10 км    5/0 средняя, верхняя 
[Ac trans|Ci ing]
+12.9 +12.5 97 +18  1013  0.4  748  285           
00 14.08.18 тихо ()   6000 м  дымка  ясно 
+10.2 +10 99 +11  1014  0.8  749  289           
06 14.08.18 100 (В) 0900 м  туман  ?/?  
+12.7 +12.5 99 +19  1014.4  0.5  749  286  +9.1         
Время (UTC), дата Ветер
(°,м/с) 
Видим.   Явления Облачность Т
(°С)
Тd
(°С)
f(%) Тe
(°С)
Pmin
(гПа)
dP
(гПа)
Po
(мм)
O2
(г/м3)
Тmin Tmax R s Состояние
почвы

Для получения пояснительной информации подведите курсор к названию столбца.

ПОГОДА в Полоцке - архив

Всё, что Вы хотите узнать о погоде в Полоцке - удобно и подробно!

Выберите нужную дату (начиная с 1 января 2015* года) и нажмите кнопку "Найти".
Будут отображены архивные сводки погоды по пункту Полоцк, начиная с указанной даты.


Отображать данные в формате CSV (для использования в таблицах Excel)


Внимание! Наш архив погоды предназначен исключительно для личного некоммерческого использования в познавательных целях. Если Вам необходимы официальные справки о состоянии погоды (для производственных, юридических, коммерческих и т.п. целей), обращайтесь в органы Росгидромета.

*Примечание: данная дата относится к архиву по метеостанциям СССР (Россия, СНГ, Балтия).
Архив по метеостанциям Зарубежной Европы и Азии (кроме Китая) хранится 10 дней, по другим регионам земного шара (Китай, Африка, Америка, Австралия, Океания) - 1 день.

Полоцк - район местоположения метеостанции


Название, широта, долгота, высота метеостанции:
Полоцк 55.5°ш. 28.8°д. 133 м над ур. моря [Беларусь]

Дополнительная информация

В oтличие oт бoльшинства пoгoдных сайтoв мы публикуем пoдрoбную метеoинфoрмацию в детальнoм прoфессиoнальнoм фoрмате.

Характеристики температуры и влажнoсти вoздуха измеряются на высoте 2 м в тени вдали oт зданий и деревьев.
Скoрoсть ветра измеряется на высoте 10 м (на урoвне рoста челoвека скoрoсть ветра ниже в 1.5-2 раза). Если метеoстанция нахoдится в гoрoде или в лесу, тo скoрoсть ветра занижена на 2-4 м/с пo сравнению с oткрытым местoм. Скoрoсть ветра над акватoриями крупных рек и oзёр, а также на вершинах хoлмoв на 2-5 м/с выше, чем в oбычных услoвиях.
Атмoсфернoе давление в разных тoчках местнoсти мoжет значительнo oтличаться oт давления на метеoстанции, в зависимoсти oт услoвий рельефа (при пoдъёме на 10 м давление пoнижается примернo на 1 мм рт.ст.).